GOES 17 [+]

Last updated on Fri Dec 29 2023 00:02:21 GMT+0000 (Coordinated Universal Time)

1 43226U 18022A 23362.42688211 -.00000082 00000+0 00000+0 0 9997 2 43226 0.0398 186.8134 0002071 74.6649 244.1450 1.00272122 21398
UTC large
Height (km)
Speed (km/s)
/
Latitude / Longitude
Inclination (degrees)
Orbital Period (minutes)
Azimuth
Elevation
Range (km)
Doppler Factor

Next 0 passes for location: London (51.5072 / 0.1276)

Sorry there are no passes over London.